Weather in Pustoshka

Russia / Pskov Oblast     56°20′15″N   29°22′00″E
temp.,
°C
wind,
m/s
gust,
m/s
humid.,
%
clouds,
%
prec.,
mm/h
press.,
hPa
HPBL,
m
6 august, fri
fri600:00+12nne259993 0.0 1013279
03:00+12nne369788 0.0 1012245
06:00+12ne269793 0.0 1011295
09:00+13ene4887100 0.0 1010582
12:00+16ene5778100 0.1 1009694
15:00+15ene51188100 0.3 1007681
18:00+15ene51295100 0.4 1005616
21:00+16ene51098100 0.5 1004513
7 august, sat
sat700:00+16ene51198100 0.4 1003459
03:00+17e3999100 1.1 1002521
06:00+17se3898100 0.4 1003493
09:00+16s379779 0.8 1003482
12:00+20s576149 0.0 10041279
15:00+19s5861100 0.1 10051503
18:00+15s4780100 0.0 1006972
21:00+14s3887100 0.1 1007629
8 august, sun
sun800:00+14s3894100 0.2 1008506
03:00+14s3798100 0.3 1009493
06:00+15sw2697100 0.1 1010406
09:00+16wsw269597 0.2 1011408
12:00+21sw346976 0.2 10131125
15:00+22sw346427 0.6 10131129
18:00+23sw2456100 0.1 10141031
21:00+18se2270100 0.1 101414
9 august, mon
mon900:00+16se3977100 0.0 1014161
03:00+16sse3138091 0.1 1014319
06:00+16ssw3989100 0.0 1014277
09:00+19sw4785100 0.0 1015710
12:00+19sw4675100 0.1 1017923
15:00+24sw354816 0.1 10171737
18:00+24sw454834 0.0 10172038
21:00+18wsw237289 0.0 101963
10 august, tue
tue1000:00+15wsw238628 0.0 101947
03:00+13wnw12940 0.0 102013
06:00+13nw11940 0.0 102010
09:00+19wnw126699 0.0 1020392
12:00+23w224939 0.0 10191242
15:00+25wnw224181 0.0 10182237
18:00+21wnw1158100 0.0 101716
21:00+18n1164100 0.0 101714